| time (UTC) | temp C | wind direction | speed KPH | gust KPH | rain 1hr cm | rain 24hr cm | rain mn cm | humidity % | barometer mb |
| 20260506162531 | 16 | 213 | 3.2 | 4.8 | 0.00 | 0.00 | 0.00 | 82 | 1010.9 |
| 20260506162026 | 16 | 256 | 0.0 | 3.2 | 0.00 | 0.00 | 0.00 | 82 | 1010.9 |
| 20260506161518 | 16 | 221 | 1.6 | 3.2 | 0.00 | 0.00 | 0.00 | 81 | 1011.0 |
| 20260506161013 | 16 | 240 | 3.2 | 4.8 | 0.00 | 0.00 | 0.00 | 79 | 1011.0 |
| 20260506160509 | 16 | 221 | 0.0 | 4.8 | 0.00 | 0.00 | 0.00 | 79 | 1011.0 |
| 20260506160001 | 17 | 186 | 3.2 | 3.2 | 0.00 | 0.00 | 0.00 | 78 | 1011.0 |
| 20260506155715 | 17 | 188 | 3.2 | 4.8 | 0.00 | 0.00 | 0.00 | 79 | 1011.1 |
| 20260506155433 | 16 | 249 | 1.6 | 4.8 | 0.00 | 0.00 | 0.00 | 79 | 1011.3 |
| 20260506154443 | 17 | 251 | 0.0 | 3.2 | 0.00 | 0.00 | 0.00 | 78 | 1011.3 |
| 20260506153935 | 16 | 260 | 0.0 | 6.4 | 0.00 | 0.00 | 0.00 | 79 | 1011.4 |
| 20260506153427 | 16 | 230 | 3.2 | 4.8 | 0.00 | 0.00 | 0.00 | 79 | 1011.4 |
| 20260506152922 | 16 | 119 | 3.2 | 4.8 | 0.00 | 0.00 | 0.00 | 79 | 1011.4 |
| 20260506152414 | 16 | 226 | 1.6 | 3.2 | 0.00 | 0.00 | 0.00 | 79 | 1011.4 |
| 20260506152129 | 16 | 40 | 3.2 | 3.2 | 0.00 | 0.00 | 0.00 | 80 | 1011.4 |
| 20260506151401 | 16 | 239 | 1.6 | 3.2 | 0.00 | 0.00 | 0.00 | 79 | 1011.3 |
| 20260506150856 | 16 | 102 | 1.6 | 6.4 | 0.00 | 0.00 | 0.00 | 80 | 1011.1 |
| 20260506150348 | 16 | 152 | 1.6 | 3.2 | 0.00 | 0.00 | 0.00 | 80 | 1011.1 |
| 20260506145843 | 16 | 196 | 1.6 | 4.8 | 0.00 | 0.00 | 0.00 | 79 | 1011.2 |
| 20260506145335 | 16 | 171 | 1.6 | 4.8 | 0.00 | 0.00 | 0.00 | 79 | 1011.3 |
| 20260506145046 | 16 | 108 | 1.6 | 4.8 | 0.00 | 0.00 | 0.00 | 80 | 1010.9 |
| 20260506144322 | 16 | 229 | 1.6 | 4.8 | 0.00 | 0.00 | 0.00 | 80 | 1011.2 |
| 20260506143814 | 16 | 174 | 6.4 | 11.3 | 0.00 | 0.00 | 0.00 | 79 | 1011.2 |
| 20260506143309 | 16 | 252 | 0.0 | 4.8 | 0.00 | 0.00 | 0.00 | 79 | 1011.1 |
| 20260506142801 | 17 | 251 | 1.6 | 1.6 | 0.00 | 0.00 | 0.00 | 78 | 1011.3 |
| 20260506142256 | 17 | 324 | 0.0 | 6.4 | 0.00 | 0.00 | 0.00 | 77 | 1011.5 |
| 20260506141748 | 17 | 257 | 1.6 | 3.2 | 0.00 | 0.00 | 0.00 | 78 | 1011.5 |
| 20260506141243 | 17 | 207 | 1.6 | 4.8 | 0.00 | 0.00 | 0.00 | 78 | 1011.5 |
| 20260506140956 | 17 | 281 | 6.4 | 9.7 | 0.00 | 0.00 | 0.00 | 77 | 1011.2 |
| 20260506140231 | 17 | 223 | 1.6 | 11.3 | 0.00 | 0.00 | 0.00 | 77 | 1011.3 |
| 20260506135723 | 17 | 202 | 6.4 | 11.3 | 0.00 | 0.00 | 0.00 | 77 | 1011.3 |
| 20260506135218 | 17 | 231 | 6.4 | 9.7 | 0.00 | 0.00 | 0.00 | 78 | 1011.3 |
| 20260506134710 | 16 | 267 | 3.2 | 3.2 | 0.00 | 0.00 | 0.00 | 79 | 1011.7 |
| 20260506134205 | 16 | 110 | 3.2 | 4.8 | 0.00 | 0.00 | 0.00 | 79 | 1011.5 |
| 20260506133656 | 17 | 245 | 1.6 | 3.2 | 0.00 | 0.00 | 0.00 | 79 | 1011.6 |
| 20260506133414 | 16 | 233 | 1.6 | 4.8 | 0.00 | 0.00 | 0.00 | 79 | 1011.3 |
| 20260506132644 | 16 | 250 | 1.6 | 4.8 | 0.00 | 0.00 | 0.00 | 80 | 1011.5 |
| 20260506132139 | 16 | 265 | 3.2 | 6.4 | 0.00 | 0.00 | 0.00 | 80 | 1011.3 |
| 20260506131631 | 16 | 139 | 3.2 | 4.8 | 0.00 | 0.00 | 0.00 | 81 | 1011.0 |
| 20260506131123 | 16 | 250 | 1.6 | 4.8 | 0.00 | 0.00 | 0.00 | 81 | 1010.9 |
| 20260506130611 | 16 | 126 | 3.2 | 6.4 | 0.00 | 0.00 | 0.00 | 81 | 1011.4 |
| 20260506130103 | 16 | 238 | 0.0 | 3.2 | 0.00 | 0.00 | 0.00 | 82 | 1011.2 |
| 20260506125555 | 16 | 206 | 1.6 | 3.2 | 0.00 | 0.00 | 0.00 | 82 | 1011.3 |
| 20260506125050 | 16 | 253 | 0.0 | 4.8 | 0.00 | 0.00 | 0.00 | 82 | 1011.2 |
| 20260506124542 | 16 | 247 | 3.2 | 3.2 | 0.00 | 0.00 | 0.00 | 82 | 1011.2 |
| 20260506124037 | 16 | 296 | 1.6 | 4.8 | 0.00 | 0.00 | 0.00 | 82 | 1011.4 |
| 20260506123529 | 16 | 194 | 4.8 | 11.3 | 0.00 | 0.00 | 0.00 | 81 | 1011.4 |
| 20260506123023 | 16 | 216 | 3.2 | 4.8 | 0.00 | 0.00 | 0.00 | 81 | 1011.6 |
| 20260506122516 | 16 | 244 | 3.2 | 4.8 | 0.00 | 0.00 | 0.00 | 82 | 1011.5 |
| 20260506122010 | 16 | 244 | 3.2 | 4.8 | 0.00 | 0.00 | 0.00 | 82 | 1011.8 |
| 20260506121722 | 15 | 262 | 1.6 | 4.8 | 0.00 | 0.00 | 0.00 | 82 | 1011.8 |
| 20260506120954 | 16 | 253 | 3.2 | 4.8 | 0.00 | 0.00 | 0.00 | 82 | 1012.0 |
| 20260506120712 | 16 | 232 | 1.6 | 4.8 | 0.00 | 0.00 | 0.00 | 82 | 1011.9 |
| 20260506120201 | 15 | 210 | 1.6 | 3.2 | 0.00 | 0.00 | 0.00 | 83 | 1011.9 |
| 20260506115437 | 16 | 208 | 3.2 | 4.8 | 0.00 | 0.00 | 0.00 | 83 | 1011.5 |
| 20260506114929 | 16 | 217 | 3.2 | 4.8 | 0.00 | 0.00 | 0.00 | 82 | 1011.8 |
| 20260506114424 | 15 | 76 | 3.2 | 4.8 | 0.00 | 0.00 | 0.00 | 84 | 1011.7 |
| 20260506113916 | 15 | 246 | 0.0 | 3.2 | 0.00 | 0.00 | 0.00 | 85 | 1011.6 |
| 20260506113122 | 14 | 228 | 0.0 | 3.2 | 0.00 | 0.00 | 0.00 | 87 | 1011.6 |
| 20260506112614 | 14 | 249 | 0.0 | 1.6 | 0.00 | 0.00 | 0.00 | 87 | 1011.7 |
| 20260506112111 | 14 | 269 | 1.6 | 3.2 | 0.00 | 0.00 | 0.00 | 88 | 1011.8 |
| 20260506111343 | 13 | 216 | 1.6 | 3.2 | 0.00 | 0.00 | 0.00 | 89 | 1011.8 |
| 20260506110837 | 13 | 243 | 0.0 | 1.6 | 0.00 | 0.00 | 0.00 | 90 | 1011.8 |
| 20260506110815 | 13 | 262 | 0.0 | 1.6 | 0.00 | 0.00 | 0.00 | 90 | 1011.8 |
| 20260506105824 | 13 | 219 | 0.0 | 1.6 | 0.00 | 0.00 | 0.00 | 90 | 1011.8 |
| 20260506105535 | 13 | 249 | 1.6 | 3.2 | 0.00 | 0.00 | 0.00 | 90 | 1011.9 |
| 20260506104811 | 13 | 251 | 0.0 | 3.2 | 0.00 | 0.00 | 0.00 | 91 | 1011.9 |
| 20260506104303 | 13 | 257 | 1.6 | 1.6 | 0.00 | 0.00 | 0.00 | 92 | 1011.7 |
| 20260506103755 | 13 | 180 | 1.6 | 3.2 | 0.00 | 0.00 | 0.00 | 92 | 1011.8 |
| 20260506103244 | 12 | 256 | 0.0 | 3.2 | 0.00 | 0.00 | 0.00 | 93 | 1011.8 |
| 20260506102739 | 12 | 217 | 0.0 | 1.6 | 0.00 | 0.00 | 0.00 | 93 | 1011.8 |
| 20260506102231 | 12 | 209 | 0.0 | 1.6 | 0.00 | 0.00 | 0.00 | 93 | 1011.7 |
| 20260506101723 | 12 | 259 | 1.6 | 1.6 | 0.00 | 0.00 | 0.00 | 93 | 1011.8 |
| 20260506101219 | 12 | 246 | 1.6 | 1.6 | 0.00 | 0.00 | 0.00 | 93 | 1011.9 |
| 20260506100709 | 12 | 235 | 0.0 | 1.6 | 0.00 | 0.00 | 0.00 | 93 | 1011.6 |
| 20260506100205 | 12 | 250 | 0.0 | 1.6 | 0.00 | 0.00 | 0.00 | 93 | 1011.8 |
| 20260506095657 | 12 | 227 | 0.0 | 1.6 | 0.00 | 0.00 | 0.00 | 93 | 1011.9 |
| 20260506095152 | 12 | 227 | 1.6 | 6.4 | 0.00 | 0.00 | 0.00 | 93 | 1011.6 |
| 20260506094139 | 12 | 251 | 0.0 | 1.6 | 0.00 | 0.00 | 0.00 | 92 | 1011.5 |
| 20260506093631 | 12 | 236 | 0.0 | 0.0 | 0.00 | 0.00 | 0.00 | 92 | 1011.9 |
| 20260506093123 | 12 | 251 | 0.0 | 0.0 | 0.00 | 0.00 | 0.00 | 91 | 1011.6 |
| 20260506092837 | 12 | 244 | 0.0 | 1.6 | 0.00 | 0.00 | 0.00 | 91 | 1011.5 |
| 20260506092110 | 12 | 258 | 0.0 | 1.6 | 0.00 | 0.00 | 0.00 | 91 | 1011.7 |
| 20260506091605 | 12 | 255 | 0.0 | 3.2 | 0.00 | 0.00 | 0.00 | 91 | 1011.7 |
| 20260506091057 | 12 | 254 | 1.6 | 3.2 | 0.00 | 0.00 | 0.00 | 91 | 1011.8 |
| 20260506090552 | 12 | 190 | 1.6 | 3.2 | 0.00 | 0.00 | 0.00 | 90 | 1011.9 |
| 20260506090044 | 12 | 247 | 1.6 | 3.2 | 0.00 | 0.00 | 0.00 | 90 | 1011.8 |
| 20260506085539 | 12 | 243 | 1.6 | 4.8 | 0.00 | 0.00 | 0.00 | 90 | 1011.8 |
| 20260506085031 | 12 | 233 | 1.6 | 1.6 | 0.00 | 0.00 | 0.00 | 90 | 1011.6 |
| 20260506084523 | 12 | 178 | 1.6 | 3.2 | 0.00 | 0.00 | 0.00 | 90 | 1011.7 |
| 20260506084240 | 13 | 257 | 1.6 | 1.6 | 0.00 | 0.00 | 0.00 | 90 | 1011.8 |
| 20260506083510 | 13 | 276 | 0.0 | 3.2 | 0.00 | 0.00 | 0.00 | 90 | 1011.8 |
| 20260506083005 | 13 | 228 | 3.2 | 3.2 | 0.00 | 0.00 | 0.00 | 89 | 1012.1 |
| 20260506082457 | 13 | 204 | 1.6 | 3.2 | 0.00 | 0.00 | 0.00 | 89 | 1012.1 |
| 20260506081952 | 13 | 236 | 3.2 | 3.2 | 0.00 | 0.00 | 0.00 | 89 | 1012.1 |
| 20260506081444 | 13 | 254 | 0.0 | 6.4 | 0.00 | 0.00 | 0.00 | 89 | 1011.9 |
| 20260506080939 | 13 | 239 | 3.2 | 3.2 | 0.00 | 0.00 | 0.00 | 89 | 1012.2 |
| 20260506080425 | 13 | 267 | 1.6 | 3.2 | 0.00 | 0.00 | 0.00 | 89 | 1011.9 |
| 20260506073346 | 13 | 289 | 0.0 | 3.2 | 0.00 | 0.00 | 0.00 | 88 | 1012.0 |
| 20260506072838 | 13 | 228 | 1.6 | 3.2 | 0.00 | 0.00 | 0.00 | 88 | 1012.0 |
| 20260506072333 | 13 | 272 | 1.6 | 3.2 | 0.00 | 0.00 | 0.00 | 88 | 1012.0 |
| 20260506071825 | 13 | 252 | 1.6 | 3.2 | 0.00 | 0.00 | 0.00 | 88 | 1012.1 |
| 20260506071320 | 13 | 250 | 1.6 | 1.6 | 0.00 | 0.00 | 0.00 | 87 | 1012.2 |
| 20260506070811 | 13 | 258 | 0.0 | 3.2 | 0.00 | 0.00 | 0.00 | 87 | 1012.2 |
| 20260506070307 | 13 | 258 | 1.6 | 6.4 | 0.00 | 0.00 | 0.00 | 87 | 1011.9 |
| 20260506062434 | 13 | 247 | 1.6 | 3.2 | 0.00 | 0.00 | 0.00 | 86 | 1011.9 |
| 20260506062152 | 13 | 185 | 1.6 | 3.2 | 0.00 | 0.00 | 0.00 | 86 | 1012.0 |
| 20260506061200 | 13 | 219 | 1.6 | 3.2 | 0.00 | 0.00 | 0.00 | 85 | 1011.9 |
| 20260506060913 | 13 | 201 | 1.6 | 3.2 | 0.00 | 0.00 | 0.00 | 84 | 1011.9 |
| 20260506060146 | 14 | 254 | 1.6 | 1.6 | 0.00 | 0.00 | 0.00 | 84 | 1011.9 |
| 20260506051039 | 15 | 245 | 1.6 | 3.2 | 0.00 | 0.00 | 0.00 | 81 | 1012.3 |
| 20260506050534 | 15 | 253 | 3.2 | 3.2 | 0.00 | 0.00 | 0.00 | 81 | 1012.3 |
| 20260506045016 | 15 | 250 | 1.6 | 3.2 | 0.00 | 0.00 | 0.00 | 80 | 1012.5 |
| 20260506044508 | 15 | 221 | 3.2 | 4.8 | 0.00 | 0.00 | 0.00 | 80 | 1012.5 |
| 20260506044003 | 15 | 258 | 1.6 | 1.6 | 0.00 | 0.00 | 0.00 | 80 | 1012.4 |
| 20260506043455 | 15 | 252 | 0.0 | 1.6 | 0.00 | 0.00 | 0.00 | 80 | 1012.5 |
| 20260506042947 | 15 | 255 | 0.0 | 1.6 | 0.00 | 0.00 | 0.00 | 80 | 1012.3 |
| 20260506042442 | 15 | 232 | 0.0 | 3.2 | 0.00 | 0.00 | 0.00 | 80 | 1012.6 |
| 20260506041934 | 15 | 247 | 0.0 | 1.6 | 0.00 | 0.00 | 0.00 | 79 | 1012.4 |
| 20260506041429 | 15 | 251 | 1.6 | 1.6 | 0.00 | 0.00 | 0.00 | 78 | 1012.5 |
| 20260506040921 | 15 | 230 | 0.0 | 0.0 | 0.00 | 0.00 | 0.00 | 78 | 1012.6 |
| 20260506040636 | 15 | 256 | 1.6 | 3.2 | 0.00 | 0.00 | 0.00 | 77 | 1012.4 |
| 20260506035912 | 16 | 261 | 1.6 | 3.2 | 0.00 | 0.00 | 0.00 | 77 | 1012.3 |
| 20260506035404 | 16 | 248 | 1.6 | 3.2 | 0.00 | 0.00 | 0.00 | 76 | 1012.3 |
| 20260506034859 | 16 | 257 | 1.6 | 1.6 | 0.00 | 0.00 | 0.00 | 76 | 1012.3 |
| 20260506034837 | 16 | 256 | 1.6 | 3.2 | 0.00 | 0.00 | 0.00 | 76 | 1012.3 |
| 20260506033843 | 16 | 228 | 1.6 | 3.2 | 0.00 | 0.00 | 0.00 | 76 | 1012.4 |
| 20260506033338 | 16 | 231 | 3.2 | 4.8 | 0.00 | 0.00 | 0.00 | 75 | 1012.1 |
| 20260506032829 | 16 | 243 | 1.6 | 3.2 | 0.00 | 0.00 | 0.00 | 75 | 1012.1 |
| 20260506032324 | 16 | 240 | 1.6 | 3.2 | 0.00 | 0.00 | 0.00 | 75 | 1012.4 |
| 20260506032035 | 16 | 250 | 0.0 | 4.8 | 0.00 | 0.00 | 0.00 | 74 | 1012.3 |
| 20260506030757 | 16 | 269 | 1.6 | 3.2 | 0.00 | 0.00 | 0.00 | 74 | 1012.2 |
| 20260506030253 | 16 | 237 | 1.6 | 1.6 | 0.00 | 0.00 | 0.00 | 74 | 1012.3 |
| 20260506025745 | 16 | 255 | 1.6 | 3.2 | 0.00 | 0.00 | 0.00 | 73 | 1012.5 |
| 20260506025240 | 16 | 219 | 3.2 | 4.8 | 0.00 | 0.00 | 0.00 | 72 | 1012.3 |
| 20260506024732 | 16 | 207 | 3.2 | 4.8 | 0.00 | 0.00 | 0.00 | 72 | 1012.5 |
| 20260506024714 | 16 | 255 | 3.2 | 4.8 | 0.00 | 0.00 | 0.00 | 71 | 1012.2 |
| 20260506023719 | 16 | 222 | 1.6 | 4.8 | 0.00 | 0.00 | 0.00 | 72 | 1012.4 |
| 20260506023211 | 16 | 254 | 0.0 | 3.2 | 0.00 | 0.00 | 0.00 | 71 | 1012.4 |
| 20260506022706 | 16 | 251 | 1.6 | 3.2 | 0.00 | 0.00 | 0.00 | 71 | 1012.4 |
| 20260506022416 | 16 | 199 | 3.2 | 4.8 | 0.00 | 0.00 | 0.00 | 71 | 1012.2 |
| 20260506021652 | 16 | 249 | 1.6 | 6.4 | 0.00 | 0.00 | 0.00 | 70 | 1012.4 |
| 20260506021144 | 17 | 262 | 1.6 | 4.8 | 0.00 | 0.00 | 0.00 | 70 | 1012.4 |
| 20260506020859 | 17 | 295 | 1.6 | 4.8 | 0.00 | 0.00 | 0.00 | 70 | 1012.1 |
| 20260506020351 | 17 | 255 | 3.2 | 6.4 | 0.00 | 0.00 | 0.00 | 69 | 1012.1 |
| 20260506015627 | 17 | 227 | 4.8 | 6.4 | 0.00 | 0.00 | 0.00 | 69 | 1012.3 |
| 20260506015119 | 17 | 204 | 3.2 | 9.7 | 0.00 | 0.00 | 0.00 | 68 | 1012.1 |
| 20260506014611 | 17 | 235 | 4.8 | 9.7 | 0.00 | 0.00 | 0.00 | 68 | 1012.0 |
| 20260506014106 | 17 | 209 | 4.8 | 11.3 | 0.00 | 0.00 | 0.00 | 69 | 1012.1 |
| 20260506013558 | 17 | 251 | 0.0 | 1.6 | 0.00 | 0.00 | 0.00 | 70 | 1011.9 |
| 20260506013053 | 17 | 267 | 3.2 | 4.8 | 0.00 | 0.00 | 0.00 | 69 | 1012.0 |
| 20260506012545 | 17 | 248 | 1.6 | 4.8 | 0.00 | 0.00 | 0.00 | 68 | 1011.8 |
| 20260506012040 | 17 | 270 | 1.6 | 3.2 | 0.00 | 0.00 | 0.00 | 69 | 1011.9 |
| 20260506011532 | 17 | 234 | 3.2 | 3.2 | 0.00 | 0.00 | 0.00 | 69 | 1011.8 |
| 20260506011027 | 17 | 244 | 3.2 | 4.8 | 0.00 | 0.00 | 0.00 | 68 | 1011.5 |
| 20260506010740 | 17 | 240 | 3.2 | 3.2 | 0.00 | 0.00 | 0.00 | 68 | 1011.6 |
| 20260506010011 | 17 | 238 | 1.6 | 4.8 | 0.00 | 0.00 | 0.00 | 68 | 1011.5 |
| 20260506005506 | 17 | 206 | 3.2 | 4.8 | 0.00 | 0.00 | 0.00 | 68 | 1011.4 |
| 20260506004958 | 17 | 0 | 0.0 | 1.6 | 0.00 | 0.00 | 0.00 | 68 | 1011.4 |
| 20260506004453 | 17 | 249 | 1.6 | 3.2 | 0.00 | 0.00 | 0.00 | 66 | 1011.2 |
| 20260506003945 | 17 | 258 | 1.6 | 3.2 | 0.00 | 0.00 | 0.00 | 67 | 1011.3 |
| 20260506003440 | 17 | 235 | 1.6 | 4.8 | 0.00 | 0.00 | 0.00 | 67 | 1011.2 |
| 20260506002932 | 17 | 240 | 1.6 | 3.2 | 0.00 | 0.00 | 0.00 | 66 | 1011.1 |
| 20260506002427 | 17 | 243 | 3.2 | 6.4 | 0.00 | 0.00 | 0.00 | 66 | 1011.0 |
| 20260506001919 | 17 | 68 | 1.6 | 3.2 | 0.00 | 0.00 | 0.00 | 66 | 1010.9 |
| 20260506001411 | 17 | 236 | 0.0 | 3.2 | 0.00 | 0.00 | 0.00 | 65 | 1010.9 |
| 20260506000905 | 17 | 187 | 3.2 | 4.8 | 0.00 | 0.00 | 0.00 | 65 | 1010.9 |
| 20260506000358 | 17 | 260 | 0.0 | 3.2 | 0.00 | 0.00 | 0.00 | 64 | 1010.7 |
| 20260505235853 | 18 | 247 | 1.6 | 3.2 | 0.00 | 0.00 | 0.00 | 63 | 1010.8 |
| 20260505235345 | 17 | 267 | 3.2 | 4.8 | 0.00 | 0.00 | 0.00 | 63 | 1010.8 |
| 20260505234840 | 17 | 261 | 1.6 | 3.2 | 0.00 | 0.00 | 0.00 | 64 | 1010.5 |
| 20260505234332 | 17 | 298 | 0.0 | 1.6 | 0.00 | 0.00 | 0.00 | 64 | 1010.5 |
| 20260505234046 | 18 | 244 | 1.6 | 4.8 | 0.00 | 0.00 | 0.00 | 62 | 1010.4 |
| 20260505233319 | 18 | 247 | 4.8 | 6.4 | 0.00 | 0.00 | 0.00 | 61 | 1010.6 |
| 20260505232811 | 18 | 203 | 1.6 | 11.3 | 0.00 | 0.00 | 0.00 | 62 | 1010.2 |
| 20260505232306 | 18 | 204 | 3.2 | 6.4 | 0.00 | 0.00 | 0.00 | 62 | 1010.3 |
| 20260505231758 | 18 | 177 | 4.8 | 6.4 | 0.00 | 0.00 | 0.00 | 61 | 1010.3 |
| 20260505231252 | 18 | 199 | 4.8 | 6.4 | 0.00 | 0.00 | 0.00 | 61 | 1010.3 |
| 20260505230738 | 18 | 208 | 3.2 | 4.8 | 0.00 | 0.00 | 0.00 | 61 | 1010.1 |
| 20260505230234 | 18 | 251 | 4.8 | 9.7 | 0.00 | 0.00 | 0.00 | 61 | 1010.1 |
| 20260505225726 | 19 | 305 | 4.8 | 11.3 | 0.00 | 0.00 | 0.00 | 60 | 1010.1 |
| 20260505225221 | 19 | 277 | 3.2 | 12.9 | 0.00 | 0.00 | 0.00 | 60 | 1010.1 |
| 20260505224712 | 19 | 260 | 0.0 | 6.4 | 0.00 | 0.00 | 0.00 | 60 | 1009.8 |
| 20260505224208 | 19 | 248 | 1.6 | 4.8 | 0.00 | 0.00 | 0.00 | 60 | 1010.0 |
| 20260505223700 | 20 | 243 | 3.2 | 9.7 | 0.00 | 0.00 | 0.00 | 59 | 1009.9 |
| 20260505223154 | 20 | 210 | 4.8 | 9.7 | 0.00 | 0.00 | 0.00 | 59 | 1010.1 |
| 20260505222646 | 20 | 193 | 3.2 | 9.7 | 0.00 | 0.00 | 0.00 | 59 | 1010.1 |
| 20260505222623 | 20 | 258 | 6.4 | 9.7 | 0.00 | 0.00 | 0.00 | 58 | 1010.0 |
| 20260505221633 | 20 | 182 | 3.2 | 3.2 | 0.00 | 0.00 | 0.00 | 59 | 1010.1 |
| 20260505221126 | 20 | 233 | 3.2 | 4.8 | 0.00 | 0.00 | 0.00 | 59 | 1010.1 |
| 20260505220841 | 20 | 208 | 1.6 | 4.8 | 0.00 | 0.00 | 0.00 | 60 | 1010.0 |
| 20260505220117 | 20 | 213 | 4.8 | 9.7 | 0.00 | 0.00 | 0.00 | 59 | 1010.0 |
| 20260505215609 | 20 | 179 | 4.8 | 6.4 | 0.00 | 0.00 | 0.00 | 59 | 1009.9 |
| 20260505215104 | 20 | 202 | 9.7 | 12.9 | 0.00 | 0.00 | 0.00 | 58 | 1010.0 |
| 20260505214556 | 20 | 241 | 4.8 | 9.7 | 0.00 | 0.00 | 0.00 | 59 | 1009.8 |
| 20260505214051 | 20 | 220 | 3.2 | 6.4 | 0.00 | 0.00 | 0.00 | 60 | 1009.8 |
| 20260505213543 | 20 | 252 | 3.2 | 9.7 | 0.00 | 0.00 | 0.00 | 60 | 1009.9 |
| 20260505213034 | 20 | 290 | 9.7 | 12.9 | 0.00 | 0.00 | 0.00 | 58 | 1009.9 |
| 20260505212529 | 21 | 239 | 3.2 | 4.8 | 0.00 | 0.00 | 0.00 | 59 | 1009.8 |
| 20260505212021 | 20 | 250 | 3.2 | 9.7 | 0.00 | 0.00 | 0.00 | 59 | 1009.8 |
| 20260505211516 | 20 | 237 | 1.6 | 3.2 | 0.00 | 0.00 | 0.00 | 59 | 1009.7 |
| 20260505211008 | 21 | 114 | 1.6 | 6.4 | 0.00 | 0.00 | 0.00 | 58 | 1009.6 |
| 20260505210727 | 21 | 180 | 1.6 | 9.7 | 0.00 | 0.00 | 0.00 | 59 | 1009.4 |
| 20260505205956 | 21 | 230 | 4.8 | 9.7 | 0.00 | 0.00 | 0.00 | 59 | 1009.7 |
| 20260505205451 | 21 | 282 | 3.2 | 4.8 | 0.00 | 0.00 | 0.00 | 59 | 1009.9 |
| 20260505204943 | 21 | 260 | 1.6 | 6.4 | 0.00 | 0.00 | 0.00 | 59 | 1009.6 |
| 20260505204435 | 21 | 266 | 1.6 | 9.7 | 0.00 | 0.00 | 0.00 | 59 | 1009.7 |
| 20260505203930 | 21 | 202 | 4.8 | 9.7 | 0.00 | 0.00 | 0.00 | 58 | 1009.6 |
| 20260505203422 | 21 | 264 | 6.4 | 6.4 | 0.00 | 0.00 | 0.00 | 58 | 1009.7 |
| 20260505202917 | 21 | 176 | 1.6 | 3.2 | 0.00 | 0.00 | 0.00 | 59 | 1009.7 |
| 20260505202409 | 21 | 155 | 3.2 | 4.8 | 0.00 | 0.00 | 0.00 | 58 | 1009.8 |
| 20260505201903 | 21 | 194 | 4.8 | 9.7 | 0.00 | 0.00 | 0.00 | 59 | 1009.8 |
| 20260505201355 | 21 | 203 | 4.8 | 16.1 | 0.00 | 0.00 | 0.00 | 59 | 1009.9 |
| 20260505200851 | 21 | 270 | 3.2 | 6.4 | 0.00 | 0.00 | 0.00 | 59 | 1010.0 |
| 20260505200343 | 21 | 204 | 6.4 | 9.7 | 0.00 | 0.00 | 0.00 | 58 | 1010.0 |
| 20260505200057 | 21 | 189 | 3.2 | 11.3 | 0.00 | 0.00 | 0.00 | 57 | 1010.3 |
| 20260505195330 | 21 | 259 | 4.8 | 11.3 | 0.00 | 0.00 | 0.00 | 59 | 1010.2 |
| 20260505194822 | 21 | 237 | 3.2 | 4.8 | 0.00 | 0.00 | 0.00 | 60 | 1010.1 |
| 20260505194316 | 21 | 175 | 3.2 | 6.4 | 0.00 | 0.00 | 0.00 | 59 | 1010.2 |
| 20260505193808 | 21 | 10 | 8.0 | 11.3 | 0.00 | 0.00 | 0.00 | 57 | 1010.3 |
| 20260505193525 | 21 | 244 | 3.2 | 4.8 | 0.00 | 0.00 | 0.00 | 58 | 1010.3 |
| 20260505193014 | 21 | 201 | 6.4 | 9.7 | 0.00 | 0.00 | 0.00 | 57 | 1010.4 |
| 20260505192506 | 22 | 264 | 1.6 | 9.7 | 0.00 | 0.00 | 0.00 | 58 | 1010.3 |
| 20260505191741 | 22 | 197 | 3.2 | 4.8 | 0.00 | 0.00 | 0.00 | 58 | 1010.2 |
| 20260505191225 | 21 | 265 | 9.7 | 11.3 | 0.00 | 0.00 | 0.00 | 58 | 1010.7 |
| 20260505190718 | 21 | 216 | 4.8 | 6.4 | 0.00 | 0.00 | 0.00 | 57 | 1010.7 |
| 20260505190213 | 22 | 218 | 4.8 | 11.3 | 0.00 | 0.00 | 0.00 | 58 | 1010.6 |
| 20260505185704 | 21 | 72 | 1.6 | 11.3 | 0.00 | 0.00 | 0.00 | 58 | 1011.0 |
| 20260505185159 | 22 | 210 | 4.8 | 11.3 | 0.00 | 0.00 | 0.00 | 57 | 1010.9 |
| 20260505184651 | 23 | 265 | 0.0 | 11.3 | 0.00 | 0.00 | 0.00 | 56 | 1010.9 |
| 20260505184409 | 22 | 65 | 3.2 | 4.8 | 0.00 | 0.00 | 0.00 | 57 | 1011.0 |
| 20260505183638 | 23 | 112 | 1.6 | 6.4 | 0.00 | 0.00 | 0.00 | 56 | 1011.0 |
| 20260505183130 | 23 | 130 | 3.2 | 4.8 | 0.00 | 0.00 | 0.00 | 54 | 1010.8 |
| 20260505182625 | 23 | 273 | 0.0 | 6.4 | 0.00 | 0.00 | 0.00 | 55 | 1010.8 |
| 20260505182605 | 23 | 190 | 6.4 | 11.3 | 0.00 | 0.00 | 0.00 | 55 | 1010.8 |
| 20260505181613 | 24 | 208 | 8.0 | 11.3 | 0.00 | 0.00 | 0.00 | 53 | 1010.8 |
| 20260505181104 | 23 | 94 | 3.2 | 9.7 | 0.00 | 0.00 | 0.00 | 53 | 1010.7 |
| 20260505180600 | 23 | 235 | 3.2 | 6.4 | 0.00 | 0.00 | 0.00 | 55 | 1010.8 |
| 20260505180052 | 23 | 204 | 3.2 | 11.3 | 0.00 | 0.00 | 0.00 | 56 | 1011.0 |
| 20260505175547 | 23 | 263 | 3.2 | 9.7 | 0.00 | 0.00 | 0.00 | 56 | 1011.0 |
| 20260505175039 | 22 | 81 | 6.4 | 11.3 | 0.00 | 0.00 | 0.00 | 54 | 1010.8 |
| 20260505174531 | 23 | 222 | 6.4 | 9.7 | 0.00 | 0.00 | 0.00 | 53 | 1011.0 |
| 20260505174026 | 25 | 187 | 4.8 | 9.7 | 0.00 | 0.00 | 0.00 | 51 | 1010.9 |
| 20260505173517 | 23 | 200 | 4.8 | 6.4 | 0.00 | 0.00 | 0.00 | 52 | 1010.9 |
| 20260505173013 | 24 | 257 | 4.8 | 11.3 | 0.00 | 0.00 | 0.00 | 49 | 1011.0 |
| 20260505172504 | 24 | 274 | 3.2 | 9.7 | 0.00 | 0.00 | 0.00 | 49 | 1011.0 |
| 20260505172218 | 23 | 108 | 3.2 | 9.7 | 0.00 | 0.00 | 0.00 | 51 | 1010.8 |
| 20260505171451 | 24 | 213 | 3.2 | 6.4 | 0.00 | 0.00 | 0.00 | 50 | 1010.9 |
| 20260505170946 | 23 | 202 | 3.2 | 4.8 | 0.00 | 0.00 | 0.00 | 52 | 1011.1 |
| 20260505170442 | 23 | 143 | 6.4 | 11.3 | 0.00 | 0.00 | 0.00 | 51 | 1011.1 |
| 20260505165934 | 24 | 254 | 6.4 | 9.7 | 0.00 | 0.00 | 0.00 | 50 | 1011.1 |
| 20260505165426 | 23 | 208 | 6.4 | 9.7 | 0.00 | 0.00 | 0.00 | 51 | 1011.0 |
| 20260505165143 | 24 | 147 | 6.4 | 6.4 | 0.00 | 0.00 | 0.00 | 51 | 1011.0 |
| 20260505164414 | 23 | 264 | 0.0 | 6.4 | 0.00 | 0.00 | 0.00 | 53 | 1010.9 |
| 20260505164129 | 24 | 175 | 3.2 | 4.8 | 0.00 | 0.00 | 0.00 | 53 | 1011.1 |
| 20260505163621 | 22 | 291 | 1.6 | 4.8 | 0.00 | 0.00 | 0.00 | 53 | 1011.2 |
| 20260505162856 | 22 | 246 | 6.4 | 9.7 | 0.00 | 0.00 | 0.00 | 52 | 1011.4 |